[[{"header":{"parameterUnit":"m.s-1","parameterCategory":1,"la1":30.2991,"la2":30.254,"lo1":-89.0895,"lo2":-89.0444,"dy":0.0017,"dx":0.0017,"nx":28,"ny":28,"refTime":"2025-04-29T09:00:00:Z","depth":0,"parameterNumber":2,"parameterNumberName":"U-component_of_WINDS"},"data":[0,0,0,0,0,0,0,0,0,0,0,0,0,0,0,0,0,0,0,0,0,0,0,0,0,0,0,0,0,0,0,0,0,0,0,0,0,0,0,0,0,0,0,0,0,0,0,0,0,0,0,0,0,0,0,0,0,0,-1.1406,-1.1406,0,-1.1472,-1.1473,-1.1474,-1.1498,-1.1498,-1.1497,-1.1497,-1.1565,-1.1567,-1.1569,0,0,0,0,0,0,0,0,0,0,0,0,0,-1.13,-1.1302,-1.1405,-1.1406,-1.1407,-1.1472,-1.1473,-1.1474,-1.1498,-1.1498,-1.1497,-1.1497,-1.1565,-1.1567,-1.1569,0,0,0,0,0,0,0,0,0,0,0,0,0,-1.1354,-1.1302,-1.1405,-1.1427,-1.143,-1.1472,-1.1473,-1.1474,-1.1498,-1.1498,-1.1497,-1.1497,-1.1564,-1.1567,-1.157,-1.1595,0,0,-1.1579,-1.158,0,0,0,0,0,0,0,0,-1.1351,-1.1358,-1.1423,-1.1426,-1.1429,-1.1476,-1.1461,-1.1515,-1.1498,-1.1472,-1.1497,-1.1497,-1.1536,-1.1541,-1.1554,-1.1598,-1.1601,-1.1579,-1.1581,-1.1582,-1.1583,0,0,0,0,0,0,0,-1.1347,-1.1355,-1.1432,-1.1424,-1.1427,-1.1434,-1.1441,-1.1471,-1.1505,-1.1474,-1.1476,-1.1484,-1.1537,-1.1551,-1.1556,-1.1602,-1.1579,-1.1582,-1.1584,-1.1585,-1.1671,-1.1671,0,0,0,0,0,0,-1.134,-1.1352,-1.143,-1.1434,-1.1388,-1.1436,-1.1444,-1.1461,-1.1505,-1.1511,-1.1484,-1.1485,-1.1546,-1.1553,-1.1559,-1.1592,-1.1582,-1.1585,-1.1587,-1.167,-1.1671,-1.1671,0,0,0,0,0,0,-1.1337,-1.1346,-1.1427,-1.1393,-1.1404,-1.1438,-1.1457,-1.1463,-1.1477,-1.1512,-1.1518,-1.1492,-1.1546,-1.1554,-1.1586,-1.1594,-1.1587,-1.1589,-1.167,-1.167,-1.1671,-1.1657,0,0,0,0,0,0,-1.1334,-1.1345,-1.1355,-1.1393,-1.1406,-1.1453,-1.1458,-1.1464,-1.1482,-1.1484,-1.1521,-1.1527,-1.1547,-1.1581,-1.1589,-1.1598,-1.1592,-1.1669,-1.167,-1.1671,-1.1657,-1.1657,-1.1658,0,0,0,0,0,-1.133,-1.1349,-1.1356,-1.1365,-1.1419,-1.1454,-1.1461,-1.1483,-1.1483,-1.1493,-1.1516,-1.1526,-1.1592,-1.1584,-1.1593,-1.1604,-1.1669,-1.167,-1.1671,-1.1657,-1.1657,-1.1658,0,0,0,0,0,0,-1.1311,-1.1354,-1.1362,-1.1394,-1.142,-1.1458,-1.1471,-1.1482,-1.1509,-1.1509,-1.1536,-1.1544,-1.1573,-1.1592,-1.1582,-1.163,-1.1631,-1.1634,-1.1618,-1.1618,-1.1618,-1.1614,-1.1594,0,0,0,0,0,-1.131,-1.1334,-1.1371,-1.1395,-1.1408,-1.1437,-1.1453,-1.1468,-1.1496,-1.1507,-1.1532,-1.1559,-1.1586,-1.1603,-1.163,-1.166,-1.1668,-1.1671,-1.1671,-1.1671,-1.1674,-1.1691,-1.1693,-1.1675,-1.1675,-1.1675,0,0,-1.1309,-1.1336,-1.1349,-1.1392,-1.1414,-1.1439,-1.1446,-1.1472,-1.1491,-1.1511,-1.1543,-1.1562,-1.1593,-1.1624,-1.1639,-1.1641,-1.1681,-1.1673,-1.1672,-1.1675,-1.1693,-1.1694,-1.1696,-1.1675,-1.1675,-1.1675,0,0,-1.132,-1.1342,-1.1365,-1.1387,-1.142,-1.1439,-1.1445,-1.1481,-1.1495,-1.1526,-1.1542,-1.1565,-1.161,-1.1632,-1.165,-1.1669,-1.1679,-1.1677,-1.1678,-1.1695,-1.1696,-1.1698,-1.1705,-1.1707,-1.1679,-1.1679,-1.1679,0,-1.1314,-1.1352,-1.1375,-1.14,-1.1419,-1.1438,-1.1461,-1.1481,-1.1521,-1.1534,-1.1534,-1.1592,-1.1615,-1.1652,-1.1656,-1.1669,-1.1677,-1.1673,-1.1694,-1.1696,-1.1698,-1.1705,-1.1707,-1.1678,-1.1678,-1.1678,-1.1678,0,-1.1344,-1.137,-1.1384,-1.1423,-1.1443,-1.1467,-1.1493,-1.1511,-1.1524,-1.1543,-1.1575,-1.1603,-1.1636,-1.1646,-1.1659,-1.1684,-1.1684,-1.1689,-1.169,-1.1698,-1.1706,-1.1708,-1.1677,-1.1678,-1.1678,-1.1678,0,0,-1.1345,-1.1395,-1.14,-1.1418,-1.1456,-1.1476,-1.1501,-1.1533,-1.1548,-1.1575,-1.1597,-1.1635,-1.164,-1.1659,-1.1675,-1.169,-1.1703,-1.1693,-1.1694,-1.1694,-1.1734,-1.173,-1.1733,-1.171,-1.1711,-1.1712,-1.1731,0,-1.1361,-1.1406,-1.1428,-1.1464,-1.1488,-1.1507,-1.1528,-1.1554,-1.1573,-1.1596,-1.1617,-1.1644,-1.1648,-1.166,-1.1676,-1.1698,-1.1712,-1.1697,-1.1731,-1.1732,-1.1723,-1.1736,-1.1732,-1.1749,-1.1734,-1.1734,-1.1735,0,-1.1386,-1.1413,-1.1451,-1.1486,-1.1497,-1.1516,-1.1548,-1.157,-1.1599,-1.1612,-1.1634,-1.1649,-1.1676,-1.1675,-1.1712,-1.1702,-1.1717,-1.1731,-1.1732,-1.1736,-1.1734,-1.1741,-1.1755,-1.1758,-1.1739,-1.1739,-1.1739,0,-1.1383,-1.1429,-1.1458,-1.1472,-1.1514,-1.1527,-1.1545,-1.1574,-1.1592,-1.1619,-1.1631,-1.1661,-1.1677,-1.17,-1.1723,-1.172,-1.1759,-1.1759,-1.177,-1.177,-1.1778,-1.1777,-1.1795,-1.1787,-1.1787,-1.1787,-1.1787,0,-1.1399,-1.1422,-1.1457,-1.1475,-1.1501,-1.1525,-1.1551,-1.157,-1.1596,-1.1618,-1.1636,-1.1656,-1.1685,-1.1709,-1.1727,-1.1755,-1.1762,-1.1774,-1.1778,-1.1772,-1.1771,-1.1783,-1.1783,-1.1787,-1.1787,-1.1787,-1.1787,0,-1.1401,-1.1425,-1.1458,-1.1494,-1.1504,-1.1522,-1.1553,-1.1571,-1.1591,-1.1618,-1.1626,-1.1657,-1.1686,-1.1711,-1.1749,-1.1761,-1.1791,-1.1797,-1.1781,-1.1784,-1.1793,-1.1792,-1.182,-1.1825,-1.1813,-1.1813,-1.1813,0,-1.1409,-1.1427,-1.1466,-1.1482,-1.1499,-1.1525,-1.1543,-1.1568,-1.1586,-1.1621,-1.1635,-1.1665,-1.1691,-1.1737,-1.1763,-1.1792,-1.1799,-1.1806,-1.1803,-1.1797,-1.1799,-1.1798,-1.18,-1.1806,-1.1806,-1.1806,-1.1806,0,-1.1423,-1.1434,-1.146,-1.1489,-1.1511,-1.1536,-1.1561,-1.1573,-1.1602,-1.1622,-1.1652,-1.1672,-1.1711,-1.1741,-1.1773,-1.1792,-1.1804,-1.1807,-1.1811,-1.1806,-1.1796,-1.1802,-1.1782,-1.1807,-1.1807,-1.1807,-1.1807,-1.1807,-1.1429,-1.1446,-1.1475,-1.1503,-1.1525,-1.1548,-1.1567,-1.1589,-1.1614,-1.1648,-1.1661,-1.1691,-1.1721,-1.1765,-1.1784,-1.1808,-1.181,-1.1816,-1.1818,-1.1819,-1.1818,-1.1792,-1.1814,-1.1814,-1.1814,-1.1814,-1.1814,0,-1.1444,-1.1464,-1.1489,-1.1524,-1.1546,-1.1555,-1.1583,-1.1601,-1.1628,-1.1654,-1.1679,-1.1713,-1.1743,-1.1771,-1.1801,-1.1816,-1.1822,-1.1823,-1.1822,-1.1826,-1.1815,-1.1808,-1.1817,-1.1817,-1.1817,-1.1817,-1.1817,-1.1817,-1.1454,-1.1483,-1.1498,-1.1538,-1.1558,-1.1588,-1.1603,-1.1625,-1.1646,-1.1683,-1.1708,-1.1726,-1.1753,-1.1785,-1.1813,-1.182,-1.1831,-1.183,-1.1839,-1.1828,-1.1827,-1.1827,-1.1821,-1.1832,-1.1832,-1.1849,-1.1849,-1.185]},{"header":{"parameterUnit":"m.s-1","parameterCategory":1,"la1":30.2991,"la2":30.254,"lo1":-89.0895,"lo2":-89.0444,"dy":0.0017,"dx":0.0017,"nx":28,"ny":28,"refTime":"2025-04-29T09:00:00:Z","depth":0,"parameterNumber":3,"parameterNumberName":"V-component_of_WINDS"},"data":[0,0,0,0,0,0,0,0,0,0,0,0,0,0,0,0,0,0,0,0,0,0,0,0,0,0,0,0,0,0,0,0,0,0,0,0,0,0,0,0,0,0,0,0,0,0,0,0,0,0,0,0,0,0,0,0,0,0,3.8637,3.8638,0,3.865,3.865,3.865,3.8597,3.8596,3.8594,3.8593,3.8604,3.8605,3.8607,0,0,0,0,0,0,0,0,0,0,0,0,0,3.8565,3.8567,3.8637,3.8638,3.8638,3.865,3.865,3.865,3.8598,3.8596,3.8594,3.8592,3.8603,3.8605,3.8607,0,0,0,0,0,0,0,0,0,0,0,0,0,3.8589,3.8567,3.8637,3.8613,3.8611,3.865,3.865,3.865,3.8598,3.8596,3.8593,3.8591,3.8602,3.8605,3.8608,3.867,0,0,3.8616,3.8617,0,0,0,0,0,0,0,0,3.8588,3.8592,3.8616,3.8615,3.8612,3.862,3.8629,3.8657,3.8599,3.8603,3.8593,3.859,3.8611,3.8613,3.862,3.8671,3.8671,3.8616,3.8617,3.8618,3.8619,0,0,0,0,0,0,0,3.8586,3.8591,3.8642,3.8617,3.8614,3.8601,3.8601,3.8634,3.862,3.8602,3.8598,3.8601,3.8609,3.8618,3.862,3.8671,3.8616,3.8618,3.862,3.8621,3.8773,3.8775,0,0,0,0,0,0,3.8588,3.859,3.8642,3.8643,3.8594,3.8604,3.8605,3.862,3.8619,3.8617,3.8603,3.8598,3.8614,3.8617,3.862,3.8692,3.8618,3.8621,3.8622,3.877,3.8773,3.8776,0,0,0,0,0,0,3.8587,3.8593,3.8641,3.8615,3.862,3.8607,3.8625,3.8621,3.8629,3.862,3.8617,3.8614,3.8613,3.8616,3.8658,3.8692,3.8622,3.8624,3.8767,3.8771,3.8775,3.8838,0,0,0,0,0,0,3.8585,3.8593,3.8617,3.8616,3.8622,3.868,3.8627,3.8623,3.8634,3.8629,3.8629,3.8627,3.8611,3.8654,3.8661,3.8694,3.8626,3.8764,3.8769,3.8773,3.8833,3.8843,3.8853,0,0,0,0,0,3.8583,3.8635,3.8619,3.8625,3.8652,3.8682,3.8685,3.8666,3.8637,3.8661,3.8655,3.8627,3.8688,3.8659,3.8666,3.8701,3.8762,3.8768,3.8773,3.8828,3.8841,3.8852,0,0,0,0,0,0,3.8639,3.8634,3.8616,3.867,3.8677,3.8673,3.8702,3.8681,3.8696,3.8689,3.8665,3.8665,3.8711,3.871,3.8678,3.8761,3.872,3.8727,3.8759,3.8772,3.8781,3.878,3.8629,0,0,0,0,0,3.8658,3.8684,3.8677,3.8725,3.8729,3.8716,3.8728,3.8713,3.8719,3.8721,3.8718,3.8724,3.8744,3.8758,3.8776,3.8833,3.8831,3.886,3.887,3.8878,3.8884,3.8913,3.8925,3.8794,3.8794,3.8794,0,0,3.8697,3.8697,3.8715,3.8736,3.874,3.8766,3.8718,3.8748,3.8767,3.8725,3.8764,3.8762,3.8767,3.8817,3.8838,3.8817,3.892,3.8885,3.8892,3.8893,3.892,3.8932,3.8943,3.8798,3.8797,3.8797,0,0,3.8781,3.8785,3.8824,3.8829,3.8835,3.8825,3.8835,3.8835,3.8832,3.8871,3.884,3.8861,3.8897,3.8902,3.8909,3.8995,3.897,3.9001,3.9053,3.9081,3.9091,3.91,3.913,3.9141,3.9008,3.9008,3.9008,0,3.8829,3.8867,3.8847,3.8879,3.8889,3.8853,3.8892,3.8898,3.8909,3.8917,3.8893,3.8937,3.8938,3.8987,3.9008,3.9016,3.9025,3.9001,3.9092,3.91,3.9108,3.9136,3.9148,3.9012,3.9011,3.9011,3.901,0,3.8925,3.8952,3.8983,3.8996,3.9009,3.9045,3.9029,3.9045,3.9028,3.9021,3.9061,3.9061,3.9078,3.9089,3.9073,3.9136,3.9122,3.9096,3.9054,3.9125,3.9151,3.9161,3.9017,3.9016,3.9015,3.9014,0,0,3.9045,3.9046,3.9057,3.9062,3.9066,3.9087,3.912,3.9137,3.9151,3.916,3.9187,3.9218,3.9193,3.9202,3.9186,3.9211,3.9278,3.9181,3.9181,3.9198,3.9346,3.9365,3.9378,3.9262,3.9264,3.9265,3.9345,0,3.9126,3.9184,3.9166,3.9224,3.9248,3.9215,3.9243,3.9249,3.9243,3.9262,3.9255,3.9277,3.9243,3.9248,3.9271,3.9265,3.9307,3.9259,3.9285,3.9286,3.9284,3.9391,3.9412,3.9487,3.9355,3.9357,3.9358,0,3.9229,3.9243,3.9303,3.9303,3.9312,3.9339,3.9352,3.9372,3.9377,3.937,3.938,3.9359,3.939,3.9349,3.9392,3.936,3.937,3.9368,3.9371,3.9372,3.9326,3.9394,3.9511,3.9522,3.9374,3.9372,3.9371,0,3.9309,3.9343,3.9383,3.9388,3.9389,3.9408,3.9409,3.9412,3.9423,3.9435,3.9442,3.9458,3.9466,3.9479,3.9462,3.9434,3.9507,3.9465,3.9502,3.9503,3.9518,3.9517,3.9637,3.9527,3.9526,3.9526,3.9526,0,3.9401,3.9439,3.9419,3.9443,3.9484,3.9464,3.9505,3.9502,3.9505,3.9527,3.9499,3.9521,3.9499,3.9518,3.9506,3.9543,3.9547,3.9542,3.9538,3.9544,3.9545,3.9549,3.9543,3.9529,3.9528,3.9528,3.9527,0,3.9497,3.9485,3.9527,3.9524,3.9524,3.9555,3.9552,3.9574,3.9566,3.9595,3.9601,3.9588,3.961,3.9595,3.9616,3.9608,3.9656,3.9645,3.9655,3.9651,3.9689,3.9685,3.9815,3.9831,3.9711,3.9712,3.9713,0,3.9557,3.9585,3.9586,3.9599,3.9602,3.9624,3.9636,3.9616,3.9629,3.9637,3.9658,3.9677,3.9692,3.9728,3.972,3.9736,3.9725,3.9769,3.9727,3.9732,3.9724,3.9722,3.9725,3.9777,3.9779,3.978,3.9781,0,3.9663,3.9655,3.9673,3.9689,3.9704,3.9715,3.9724,3.9737,3.9717,3.9733,3.9755,3.9766,3.9788,3.9807,3.982,3.982,3.9797,3.9795,3.9804,3.981,3.9814,3.9811,3.9677,3.9791,3.979,3.979,3.9789,3.9789,3.9742,3.9765,3.9769,3.979,3.9794,3.9803,3.9824,3.9819,3.9837,3.9853,3.9841,3.9867,3.987,3.9886,3.9889,3.9908,3.989,3.9904,3.9907,3.991,3.9915,3.9811,3.9911,3.991,3.991,3.991,3.991,0,3.9846,3.9846,3.9866,3.9879,3.9895,3.9873,3.9882,3.9896,3.9919,3.9925,3.994,3.9965,3.9983,3.9977,3.9993,4.001,4.0,4.0015,4.0013,4.0013,3.9931,3.9921,4.0023,4.0023,4.0023,4.0023,4.0023,4.0023,3.9902,3.994,3.9932,3.9972,3.9972,3.9998,4.0005,4.0013,4.0017,4.0046,4.0061,4.0057,4.0058,4.0074,4.009,4.0087,4.0094,4.0113,4.0107,4.003,4.0019,4.0008,3.9999,4.0115,4.0115,4.0187,4.0188,4.0188]}]]